• en France
  • Liste des pays
  • À 7 jours
  • Température de l'eau
  • Carte satellitaire
  • Carte météo
  • Widgets météo
  • user-avatar
    Se connecter

    Météo par heure à Durrёs

    Ce jour, 16 Octobre, Mardi

    Heure Température Précipitation Vent Pression Humidité
    00:00 +18°C° 0 mm 2 m/s 763 mmHg 62%
    01:00 +18°C° 0 mm 2 m/s 763 mmHg 64%
    02:00 +18°C° 0 mm 2 m/s 763 mmHg 64%
    03:00 +18°C° 0 mm 2 m/s 763 mmHg 64%
    04:00 +18°C° 0 mm 2 m/s 763 mmHg 65%
    05:00 +18°C° 0 mm 2 m/s 763 mmHg 63%
    06:00 +18°C° 0 mm 2 m/s 763 mmHg 62%
    07:00 +19°C° 0 mm 2 m/s 764 mmHg 61%
    08:00 +21°C° 0 mm 2 m/s 764 mmHg 54%
    09:00 +25°C° 0 mm 2 m/s 764 mmHg 46%
    10:00 +27°C° 0 mm 2 m/s 764 mmHg 39%
    11:00 +28°C° 0 mm 2 m/s 763 mmHg 38%
    12:00 +28°C° 0 mm 2 m/s 763 mmHg 36%
    13:00 +29°C° 0 mm 3 m/s 763 mmHg 35%
    14:00 +28°C° 0 mm 3 m/s 763 mmHg 39%
    15:00 +27°C° 0 mm 3 m/s 763 mmHg 43%
    16:00 +26°C° 0 mm 3 m/s 763 mmHg 47%
    17:00 +24°C° 0 mm 2 m/s 763 mmHg 54%
    18:00 +21°C° 0 mm 2 m/s 763 mmHg 62%
    19:00 +20°C° 0 mm 1 m/s 763 mmHg 69%
    20:00 +20°C° 0 mm 1 m/s 763 mmHg 68%
    21:00 +19°C° 0 mm 2 m/s 763 mmHg 66%
    22:00 +19°C° 0 mm 2 m/s 763 mmHg 65%
    23:00 +19°C° 0 mm 2 m/s 763 mmHg 64%

    Demain, 17 Octobre, Mercredi

    Heure Température Précipitation Vent Pression Humidité
    00:00 +19°C° 0 mm 2 m/s 763 mmHg 62%
    01:00 +18°C° 0 mm 2 m/s 763 mmHg 61%
    02:00 +18°C° 0 mm 2 m/s 763 mmHg 61%
    03:00 +18°C° 0 mm 2 m/s 763 mmHg 60%
    04:00 +18°C° 0 mm 2 m/s 762 mmHg 60%
    05:00 +18°C° 0 mm 2 m/s 762 mmHg 59%
    06:00 +19°C° 0 mm 2 m/s 762 mmHg 58%
    07:00 +19°C° 0 mm 2 m/s 762 mmHg 57%
    08:00 +21°C° 0 mm 2 m/s 762 mmHg 50%
    09:00 +25°C° 0 mm 1 m/s 762 mmHg 43%
    10:00 +28°C° 0 mm 1 m/s 762 mmHg 36%
    11:00 +28°C° 0 mm 1 m/s 762 mmHg 34%
    12:00 +29°C° 0 mm 2 m/s 761 mmHg 32%
    13:00 +30°C° 0 mm 2 m/s 761 mmHg 30%
    14:00 +29°C° 0 mm 2 m/s 761 mmHg 34%
    15:00 +28°C° 0 mm 2 m/s 761 mmHg 38%
    16:00 +27°C° 0 mm 2 m/s 760 mmHg 42%
    17:00 +25°C° 0 mm 2 m/s 760 mmHg 48%
    18:00 +23°C° 0 mm 1 m/s 761 mmHg 53%
    19:00 +21°C° 0 mm 1 m/s 761 mmHg 59%
    20:00 +21°C° 0 mm 1 m/s 761 mmHg 57%
    21:00 +21°C° 0 mm 1 m/s 761 mmHg 56%
    22:00 +20°C° 0 mm 1 m/s 761 mmHg 54%
    23:00 +20°C° 0 mm 1 m/s 761 mmHg 53%

    Après-demain, 18 Octobre, Jeudi

    Heure Température Précipitation Vent Pression Humidité
    00:00 +20°C° 0 mm 1 m/s 761 mmHg 52%
    01:00 +20°C° 0 mm 1 m/s 761 mmHg 51%
    02:00 +19°C° 0 mm 1 m/s 761 mmHg 51%
    03:00 +18°C° 0 mm 2 m/s 760 mmHg 51%
    04:00 +18°C° 0 mm 2 m/s 760 mmHg 51%
    05:00 +18°C° 0 mm 2 m/s 760 mmHg 51%
    06:00 +19°C° 0 mm 2 m/s 760 mmHg 52%
    07:00 +19°C° 0 mm 2 m/s 760 mmHg 52%
    08:00 +23°C° 0 mm 2 m/s 760 mmHg 45%
    09:00 +25°C° 0 mm 1 m/s 760 mmHg 38%
    10:00 +28°C° 0 mm 1 m/s 760 mmHg 31%
    11:00 +29°C° 0 mm 1 m/s 760 mmHg 29%
    12:00 +29°C° 0 mm 2 m/s 760 mmHg 28%
    13:00 +30°C° 0 mm 2 m/s 759 mmHg 26%
    14:00 +29°C° 0 mm 2 m/s 759 mmHg 30%
    15:00 +28°C° 0 mm 2 m/s 759 mmHg 34%
    16:00 +27°C° 0 mm 2 m/s 759 mmHg 38%
    17:00 +25°C° 0 mm 2 m/s 759 mmHg 43%
    18:00 +23°C° 0 mm 2 m/s 760 mmHg 49%
    19:00 +21°C° 0 mm 1 m/s 760 mmHg 54%
    20:00 +21°C° 0 mm 1 m/s 760 mmHg 53%
    21:00 +21°C° 0 mm 1 m/s 761 mmHg 52%
    22:00 +20°C° 0 mm 1 m/s 761 mmHg 50%
    23:00 +20°C° 0 mm 1 m/s 761 mmHg 50%

    19 Octobre, Vendredi

    Heure Température Précipitation Vent Pression Humidité
    00:00 +20°C° 0 mm 1 m/s 761 mmHg 50%
    01:00 +18°C° 0 mm 0 m/s 761 mmHg 49%
    02:00 +20°C° 0 mm 1 m/s 761 mmHg 50%
    03:00 +19°C° 0 mm 1 m/s 761 mmHg 50%
    04:00 +18°C° 0 mm 2 m/s 761 mmHg 50%
    05:00 +19°C° 0 mm 2 m/s 761 mmHg 50%
    06:00 +19°C° 0 mm 2 m/s 761 mmHg 50%
    07:00 +19°C° 0 mm 2 m/s 761 mmHg 50%
    08:00 +23°C° 0 mm 2 m/s 761 mmHg 44%
    09:00 +26°C° 0 mm 1 m/s 761 mmHg 38%
    10:00 +28°C° 0 mm 1 m/s 761 mmHg 32%
    11:00 +29°C° 0 mm 2 m/s 761 mmHg 31%
    12:00 +29°C° 0 mm 3 m/s 761 mmHg 30%
    13:00 +30°C° 0 mm 4 m/s 761 mmHg 29%
    14:00 +29°C° 0 mm 4 m/s 761 mmHg 32%
    15:00 +28°C° 0 mm 4 m/s 761 mmHg 35%
    16:00 +27°C° 0 mm 4 m/s 761 mmHg 38%
    17:00 +25°C° 0 mm 4 m/s 761 mmHg 42%
    18:00 +22°C° 0 mm 4 m/s 761 mmHg 47%
    19:00 +20°C° 0 mm 3 m/s 761 mmHg 51%
    20:00 +20°C° 0 mm 3 m/s 762 mmHg 50%
    21:00 +20°C° 0 mm 3 m/s 762 mmHg 50%
    22:00 +20°C° 0 mm 2 m/s 762 mmHg 49%
    23:00 +19°C° 0 mm 2 m/s 762 mmHg 50%

    20 Octobre, Samedi

    Heure Température Précipitation Vent Pression Humidité
    00:00 +19°C° 0 mm 3 m/s 762 mmHg 51%
    01:00 +19°C° 0 mm 3 m/s 762 mmHg 51%
    02:00 +18°C° 0 mm 3 m/s 762 mmHg 52%
    03:00 +18°C° 0 mm 3 m/s 762 mmHg 53%
    04:00 +18°C° 0 mm 3 m/s 762 mmHg 55%
    05:00 +18°C° 0 mm 3 m/s 762 mmHg 55%
    06:00 +19°C° 0 mm 3 m/s 762 mmHg 55%
    07:00 +19°C° 0 mm 2 m/s 762 mmHg 55%
    08:00 +23°C° 0 mm 2 m/s 762 mmHg 48%
    09:00 +25°C° 0 mm 2 m/s 762 mmHg 41%
    10:00 +28°C° 0 mm 2 m/s 762 mmHg 35%
    11:00 +28°C° 0 mm 3 m/s 762 mmHg 33%
    12:00 +29°C° 0 mm 4 m/s 762 mmHg 32%
    13:00 +29°C° 0 mm 4 m/s 761 mmHg 31%
    14:00 +28°C° 0 mm 5 m/s 761 mmHg 34%
    15:00 +28°C° 0 mm 5 m/s 761 mmHg 36%
    16:00 +27°C° 0 mm 5 m/s 761 mmHg 39%
    17:00 +25°C° 0 mm 5 m/s 761 mmHg 45%
    18:00 +22°C° 0 mm 4 m/s 761 mmHg 50%
    19:00 +20°C° 0 mm 4 m/s 762 mmHg 56%
    20:00 +20°C° 0 mm 4 m/s 762 mmHg 55%
    21:00 +20°C° 0 mm 3 m/s 762 mmHg 54%
    22:00 +19°C° 0 mm 3 m/s 762 mmHg 53%
    23:00 +19°C° 0 mm 3 m/s 762 mmHg 53%

    21 Octobre, Dimanche

    Heure Température Précipitation Vent Pression Humidité
    00:00 +19°C° 0 mm 3 m/s 762 mmHg 52%
    01:00 +18°C° 0 mm 3 m/s 762 mmHg 52%
    02:00 +18°C° 0 mm 3 m/s 762 mmHg 52%
    03:00 +18°C° 0 mm 3 m/s 762 mmHg 52%
    04:00 +18°C° 0 mm 3 m/s 762 mmHg 52%
    05:00 +18°C° 0 mm 3 m/s 762 mmHg 51%
    06:00 +18°C° 0 mm 3 m/s 762 mmHg 51%
    07:00 +18°C° 0 mm 3 m/s 762 mmHg 50%
    08:00 +19°C° 0.2 mm 4 m/s 762 mmHg 50%
    09:00 +20°C° 0.2 mm 5 m/s 762 mmHg 49%
    10:00 +21°C° 0.2 mm 6 m/s 762 mmHg 48%
    11:00 +21°C° 0.3 mm 5 m/s 761 mmHg 52%
    12:00 +20°C° 0.3 mm 4 m/s 761 mmHg 55%
    13:00 +20°C° 0.3 mm 3 m/s 761 mmHg 58%
    14:00 +20°C° 0 mm 2 m/s 761 mmHg 57%
    15:00 +20°C° 0 mm 2 m/s 760 mmHg 56%
    16:00 +21°C° 0 mm 1 m/s 760 mmHg 55%
    17:00 +19°C° 0 mm 2 m/s 760 mmHg 60%
    18:00 +17°C° 0 mm 3 m/s 760 mmHg 64%
    19:00 +15°C° 0 mm 4 m/s 760 mmHg 68%
    20:00 +15°C° 0.1 mm 4 m/s 760 mmHg 69%
    21:00 +14°C° 0.1 mm 4 m/s 760 mmHg 70%
    22:00 +14°C° 0.1 mm 4 m/s 760 mmHg 71%
    23:00 +14°C° 0.2 mm 4 m/s 760 mmHg 71%
    Voir plus